TimeCST,TemperatureF,Dew PointF,Humidity,Sea Level PressureIn,VisibilityMPH,Wind Direction,Wind SpeedMPH,Gust SpeedMPH,PrecipitationIn,Events,Conditions,WindDirDegrees,DateUTC
12:15 AM,39.4,25.7,58,30.09,10.0,SE,11.5,-,N/A,,Overcast,140,2013-11-20 06:15:00
12:35 AM,39.6,25.0,56,30.09,10.0,SSE,13.8,-,N/A,,Overcast,150,2013-11-20 06:35:00
12:55 AM,39.4,25.7,58,30.09,10.0,SE,12.7,-,N/A,,Overcast,140,2013-11-20 06:55:00
1:15 AM,39.2,25.7,58,30.08,10.0,SE,13.8,-,N/A,,Overcast,140,2013-11-20 07:15:00
1:35 AM,39.2,25.7,58,30.08,10.0,SE,13.8,-,N/A,,Overcast,140,2013-11-20 07:35:00
1:55 AM,39.2,25.5,58,30.09,10.0,SSE,10.4,-,N/A,,Overcast,150,2013-11-20 07:55:00
2:15 AM,39.2,25.2,57,30.09,10.0,SSE,11.5,-,N/A,,Mostly Cloudy,150,2013-11-20 08:15:00
2:35 AM,39.4,24.8,56,30.09,10.0,SSE,10.4,-,N/A,,Mostly Cloudy,150,2013-11-20 08:35:00
2:55 AM,39.6,24.4,55,30.08,10.0,SE,13.8,-,N/A,,Overcast,140,2013-11-20 08:55:00
3:15 AM,39.0,25.2,58,30.07,10.0,SSE,10.4,-,N/A,,Overcast,150,2013-11-20 09:15:00
3:35 AM,38.8,26.2,61,30.06,10.0,SE,13.8,-,N/A,,Overcast,130,2013-11-20 09:35:00
3:55 AM,38.5,26.8,63,30.05,10.0,SE,13.8,-,N/A,,Overcast,140,2013-11-20 09:55:00
4:15 AM,38.7,26.8,62,30.04,10.0,SE,13.8,-,N/A,,Overcast,130,2013-11-20 10:15:00
4:35 AM,38.1,27.7,66,30.03,10.0,SE,13.8,-,N/A,,Overcast,140,2013-11-20 10:35:00
4:55 AM,37.8,27.9,67,30.03,10.0,SE,13.8,-,N/A,,Overcast,130,2013-11-20 10:55:00
5:15 AM,37.8,28.0,68,30.03,10.0,SE,12.7,-,N/A,,Overcast,140,2013-11-20 11:15:00
5:35 AM,37.9,28.0,68,30.05,10.0,SSE,9.2,-,N/A,,Overcast,150,2013-11-20 11:35:00
5:55 AM,38.3,27.9,66,30.05,10.0,SSE,10.4,-,N/A,,Overcast,150,2013-11-20 11:55:00
6:15 AM,37.8,28.9,71,30.06,10.0,SSE,5.8,-,N/A,Rain,Light Rain,160,2013-11-20 12:15:00
6:35 AM,37.9,28.4,69,30.07,10.0,South,8.1,-,N/A,,Overcast,170,2013-11-20 12:35:00
6:55 AM,38.5,27.5,65,30.06,10.0,SSE,11.5,-,N/A,,Overcast,150,2013-11-20 12:55:00
7:15 AM,38.5,26.8,63,30.05,10.0,SE,17.3,23.0,N/A,,Overcast,140,2013-11-20 13:15:00
7:35 AM,37.4,28.6,70,30.05,10.0,SSE,17.3,-,N/A,,Light Drizzle,150,2013-11-20 13:35:00
7:55 AM,37.4,29.1,72,30.06,10.0,SSE,13.8,-,N/A,,Overcast,150,2013-11-20 13:55:00
8:15 AM,37.0,29.7,75,30.06,10.0,SSE,11.5,-,N/A,Rain,Rain,160,2013-11-20 14:15:00
8:35 AM,36.5,30.2,78,30.06,5.0,SSE,18.4,-,0.02,Rain,Rain,160,2013-11-20 14:35:00
8:55 AM,36.0,31.1,82,30.05,4.0,SSE,17.3,-,0.05,,Overcast,150,2013-11-20 14:55:00
9:15 AM,35.8,31.8,86,30.04,5.0,SE,20.7,25.3,0.02,Rain,Light Rain,140,2013-11-20 15:15:00
9:35 AM,35.6,32.0,87,30.05,4.0,SSE,15.0,-,0.03,Rain,Light Rain,150,2013-11-20 15:35:00
9:55 AM,35.6,32.0,87,30.04,2.0,SSE,16.1,-,0.07,Rain,Light Rain,150,2013-11-20 15:55:00
10:15 AM,35.6,32.0,87,30.05,2.0,SSE,13.8,-,0.04,,Overcast,160,2013-11-20 16:15:00
10:35 AM,35.6,32.0,87,30.04,2.5,SSE,15.0,-,0.07,,Overcast,160,2013-11-20 16:35:00
10:55 AM,35.6,32.4,88,30.04,2.0,SSE,13.8,-,0.12,Rain,Light Rain,160,2013-11-20 16:55:00
11:15 AM,35.6,32.9,90,30.02,2.5,SSE,16.1,-,0.03,Rain,Rain,150,2013-11-20 17:15:00
11:35 AM,36.0,33.3,90,30.01,2.5,SSE,13.8,-,0.05,,Overcast,160,2013-11-20 17:35:00
11:55 AM,36.0,33.3,90,30.01,4.0,SSE,16.1,-,0.06,Rain,Light Rain,160,2013-11-20 17:55:00
12:15 PM,36.1,33.4,90,30.00,7.0,South,18.4,23.0,N/A,Rain,Light Rain,170,2013-11-20 18:15:00
12:35 PM,36.3,33.6,90,29.99,5.0,South,13.8,19.6,0.01,Rain,Light Rain,170,2013-11-20 18:35:00
12:55 PM,36.5,33.8,90,29.99,5.0,SSE,12.7,-,0.01,Rain,Light Rain,160,2013-11-20 18:55:00
1:15 PM,36.5,34.2,91,29.97,5.0,SSE,12.7,-,N/A,Rain,Light Rain,160,2013-11-20 19:15:00
1:35 PM,36.9,34.7,92,29.97,5.0,SSE,13.8,-,N/A,,Overcast,160,2013-11-20 19:35:00
1:55 PM,36.9,34.7,92,29.96,7.0,SSE,13.8,-,N/A,Rain,Light Rain,160,2013-11-20 19:55:00
2:15 PM,36.7,34.5,92,29.95,5.0,SSE,11.5,-,0.01,Rain,Light Rain,160,2013-11-20 20:15:00
2:35 PM,36.5,34.3,92,29.94,4.0,SSE,15.0,-,0.03,Rain,Rain,150,2013-11-20 20:35:00
2:55 PM,36.5,34.3,92,29.94,4.0,SSE,10.4,-,0.07,Rain,Light Rain,150,2013-11-20 20:55:00
3:15 PM,36.7,34.7,93,29.94,5.0,SSE,11.5,18.4,N/A,Rain,Light Rain,150,2013-11-20 21:15:00
3:35 PM,37.4,35.2,92,29.95,7.0,SSE,9.2,-,N/A,,Overcast,150,2013-11-20 21:35:00
3:55 PM,37.4,35.4,93,29.94,7.0,SE,9.2,-,N/A,,Overcast,140,2013-11-20 21:55:00
4:15 PM,37.4,35.6,93,29.95,7.0,SSE,11.5,-,N/A,,Overcast,150,2013-11-20 22:15:00
4:35 PM,37.4,35.1,91,29.94,7.0,SE,10.4,-,N/A,,Overcast,140,2013-11-20 22:35:00
4:55 PM,37.0,35.1,93,29.95,7.0,SE,12.7,-,N/A,,Overcast,140,2013-11-20 22:55:00
5:15 PM,37.0,35.1,93,29.97,7.0,SE,11.5,-,N/A,,Overcast,140,2013-11-20 23:15:00
5:35 PM,37.0,35.1,93,29.97,5.0,SE,10.4,-,N/A,,Overcast,140,2013-11-20 23:35:00
5:55 PM,37.0,35.1,93,29.98,4.0,SE,9.2,-,N/A,,Overcast,140,2013-11-20 23:55:00
6:15 PM,37.2,35.2,93,29.99,4.0,SE,9.2,-,N/A,,Overcast,140,2013-11-21 00:15:00
6:35 PM,37.4,35.6,93,29.99,4.0,SE,10.4,-,N/A,,Overcast,140,2013-11-21 00:35:00
6:55 PM,37.4,35.6,93,29.99,5.0,SE,12.7,-,N/A,,Overcast,140,2013-11-21 00:55:00
7:15 PM,37.4,35.6,93,29.99,5.0,SE,11.5,-,N/A,,Overcast,140,2013-11-21 01:15:00
7:35 PM,37.4,35.6,93,29.99,4.0,SE,12.7,-,N/A,,Overcast,130,2013-11-21 01:35:00
7:55 PM,37.4,35.2,92,29.99,4.0,SE,12.7,-,N/A,,Overcast,130,2013-11-21 01:55:00
8:15 PM,37.4,35.2,92,30.00,4.0,SE,11.5,-,N/A,,Overcast,140,2013-11-21 02:15:00
8:35 PM,37.4,35.2,92,30.00,4.0,SE,10.4,-,N/A,,Overcast,140,2013-11-21 02:35:00
8:55 PM,37.4,35.2,92,30.01,4.0,SE,10.4,-,N/A,,Overcast,140,2013-11-21 02:55:00
9:15 PM,37.2,35.2,93,30.01,4.0,SE,9.2,-,N/A,,Overcast,140,2013-11-21 03:15:00
9:35 PM,37.0,35.1,93,30.01,4.0,SE,8.1,-,N/A,,Overcast,140,2013-11-21 03:35:00
9:55 PM,37.0,35.1,93,30.01,4.0,SE,6.9,-,N/A,,Overcast,140,2013-11-21 03:55:00
10:15 PM,37.0,35.1,93,30.01,3.0,SE,5.8,-,N/A,,Overcast,130,2013-11-21 04:15:00
10:35 PM,37.4,35.2,92,30.01,4.0,SE,5.8,-,N/A,,Overcast,140,2013-11-21 04:35:00
10:55 PM,37.2,35.2,93,30.02,4.0,SSE,6.9,-,N/A,,Overcast,150,2013-11-21 04:55:00
11:15 PM,37.2,35.1,92,30.02,4.0,SE,5.8,-,N/A,,Overcast,140,2013-11-21 05:15:00
11:35 PM,37.4,35.4,93,30.02,4.0,SE,4.6,-,N/A,,Overcast,140,2013-11-21 05:35:00
11:55 PM,36.5,34.3,92,30.03,4.0,SE,5.8,-,N/A,,Scattered Clouds,140,2013-11-21 05:55:00